Location: Nashville
(36.1660°N, 86.7840°W)
Time: 02:48:25
(UTC-05:00)

NOAA 18 - Visible Passes

Search period start: 16 May 2022 00:00
Search period end: 26 May 2022 00:00
Orbit: 839 x 861 km, 99.0° (Epoch: 16 May)

Date Brightness Start Highest point End Pass type
(mag) Time Alt. Az. Time Alt. Az. Time Alt. Az.
16 May 5.7 21:54:48 38° E 21:55:49 42° ENE 22:00:55 10° N visible
16 May 6.9 23:36:47 22° W 23:36:47 22° W 23:40:46 10° NW visible
17 May 6.1 21:42:33 29° E 21:43:53 32° ENE 21:48:40 10° N visible
17 May 6.6 23:24:33 29° W 23:24:33 29° W 23:29:10 10° NW visible
18 May 6.4 21:30:19 22° E 21:31:58 25° ENE 21:36:20 10° NNE visible
18 May 6.1 23:12:18 37° W 23:12:23 37° W 23:17:26 10° NNW visible
19 May 6.7 21:18:05 16° E 21:20:04 20° ENE 21:23:54 10° NNE visible
19 May 5.7 23:00:04 48° WSW 23:00:19 49° W 23:05:36 10° NNW visible
20 May 7.0 21:05:50 12° E 21:08:12 16° ENE 21:11:17 10° NNE visible
20 May 5.3 22:47:49 62° SW 22:48:16 64° WSW 22:53:40 10° NNW visible
21 May 7.2 20:54:25 10° E 20:56:21 12° ENE 20:58:17 10° NE visible
21 May 5.0 22:35:35 70° S 22:36:14 83° WSW 22:41:42 10° NNW visible
22 May 5.1 22:23:21 62° SE 22:24:13 77° ENE 22:29:40 10° N visible
23 May 7.6 00:05:20 11° W 00:05:23 11° W 00:07:00 10° WNW visible
23 May 5.3 22:11:07 49° ESE 22:12:14 59° ENE 22:17:35 10° N visible
23 May 7.3 23:53:06 15° W 23:53:13 15° W 23:56:20 10° WNW visible
24 May 5.6 21:58:52 37° ESE 22:00:15 45° ENE 22:05:25 10° N visible
24 May 7.0 23:40:51 20° W 23:41:05 20° W 23:45:02 10° NW visible
25 May 6.0 21:46:38 29° ESE 21:48:18 35° ENE 21:53:13 10° N visible
25 May 6.6 23:28:37 26° WSW 23:28:57 26° W 23:33:29 10° NW visible
